Regional Weather Roundup
Issued by NWS

Home | Current Version | Previous Version | Graphics & Text | Print | Product List | Glossary On
Versions: 1 2 3 4 5 6 7 8 9 10 11 12 13 14 15 16 17 18 19 20 21 22 23 24 25 26 27 28 29 30 31 32 33 34 35 36 37 38 39 40 41 42 43 44 45 46 47 48 49 50
000
ASUS43 KLOT 250608
RWRIL

ILLINOIS REGIONAL WEATHER ROUNDUP
NATIONAL WEATHER SERVICE CHICAGO/ROMEOVILLE IL
100 AM CDT FRI MAY 25 2018

NOTE: "FAIR" INDICATES FEW OR NO CLOUDS BELOW 12,000 FEET WITH NO
SIGNIFICANT WEATHER AND/OR OBSTRUCTIONS TO VISIBILITY.

* THESE STATIONS ARE NOT UNDER NWS QUALITY CONTROL. THEY ALSO MAY NOT
  REPORT WEATHER SUCH AS PRECIPITATION OR FOG.

ILZ001-002-007-009-015-016-024-250700-
NORTHWEST ILLINOIS

CITY           SKY/WX    TMP DP  RH WIND       PRES   REMARKS
MOLINE         FAIR      69  62  78 CALM      29.99S
6HR MIN TEMP:  68; 6HR MAX TEMP:  87;

STERLING*        N/A     66  63  90 MISG        N/A
SAVANNA*       FAIR      68  60  75 CALM      30.00S
$$

ILZ003-004-008-010-011-017-018-250700-
NORTH CENTRAL ILLINOIS

CITY           SKY/WX    TMP DP  RH WIND       PRES   REMARKS
ROCKFORD       FAIR      68  58  70 CALM      30.02F
6HR MIN TEMP:  67; 6HR MAX TEMP:  83;

FREEPORT*      FAIR      66  59  79 S6        30.02F
ROCHELLE*      FAIR      67  58  73 CALM      30.02F
DE KALB*       FAIR      68  56  65 S7        30.03F
PERU*          FAIR      74  59  59 S7        30.02S
$$

ILZ005-006-012>014-019>023-250700-
NORTHEAST ILLINOIS

CITY           SKY/WX    TMP DP  RH WIND       PRES   REMARKS
CHICAGO-OHARE  FAIR      70  54  56 S5        30.02S
6HR MIN TEMP:  70; 6HR MAX TEMP:  82;

CHICAGO-MIDWAY FAIR      73  52  47 S5        30.02S
6HR MIN TEMP:  73; 6HR MAX TEMP:  82;

AURORA         FAIR      66  57  72 CALM      30.02F
6HR MIN TEMP:  66; 6HR MAX TEMP:  84;

LANSING*       FAIR      66  53  63 S5        30.04S
JOLIET*        FAIR      65  56  70 CALM      30.02F
WAUKEGAN       FAIR      62  55  77 SW6       30.01F
6HR MIN TEMP:  62; 6HR MAX TEMP:  73;

DUPAGE AIRPORT FAIR      65  59  81 CALM      30.02S
6HR MIN TEMP:  65; 6HR MAX TEMP:  82;

KANKAKEE*      FAIR      66  51  58 S3        30.04F
WHEELING       FAIR      67  57  70 CALM      30.04S
6HR MIN TEMP:  66; 6HR MAX TEMP:  82;

MORRIS*        FAIR      69  53  55 S5        30.01F
ROMEOVILLE*    FAIR      68  52  55 S7        30.03F
NORTHERLY ISL    N/A     68  51  54 S3          N/A
$$

LMZ740>746-250700-
SOUTHERN LAKE MICHIGAN

STATION/POSITION SKY/WX   TEMP    WIND        PRES    VSBY  WAVE
                          AIR SEA DIR/SP/G                  HT/PER
                          (F)     (DEG/KT/KT) (MB)    (MI)  (FT/S)
SOUTHERN BUOY              52 39  160/ 10/ 10 1016.7F         0
WILMETTE HARBOR            60 55  170/  6/  6   N/A           1
HARRISON CRIB              73     190/  9/ 10   N/A
BURNHAM HARBOR             68     170/  2/  4   N/A
CALUMET HARBOR                    190/  4/  5 1016.4S
BURNS HARBOR               73     170/  4/ 11 1017.6R
MICHIGAN CITY              73     140/ 11/ 13   N/A
MICHIGAN CITY 6N           66 60  190/  4/  4   N/A           0
ST. JOSEPH                 63 57  170/  4/  6 1017.0          0
$$

ILZ025>027-034>036-040-047-049-050-058-095>099-250700-
WEST-CENTRAL ILLINOIS

CITY           SKY/WX    TMP DP  RH WIND       PRES   REMARKS
QUINCY         PTCLDY    73  61  65 SE8       30.00F
GALESBURG*     FAIR      69  59  71 CALM      30.02F
MACOMB*        CLEAR     68  60  75 S6        30.03F
JACKSONVILLE*  CLEAR     73  59  62 S6        30.02S
PITTSFIELD*    CLEAR     71  64  78 SE3       30.03S
$$

ILZ028>032-037-038-041>044-048-051>054-059>061-250700-
CENTRAL ILLINOIS

CITY           SKY/WX    TMP DP  RH WIND       PRES   REMARKS
PONTIAC        FAIR      70  55  60 SE5       30.03F
BLOOMINGTON    FAIR      69  54  58 S9        30.04F
DECATUR        FAIR      66  55  67 S3        30.04S
PEORIA         FAIR      71  61  70 CALM      30.01F
6HR MIN TEMP:  69; 6HR MAX TEMP:  86;

LACON*         FAIR      68  60  76 SE5       30.00F
LINCOLN*       FAIR      71  58  63 CALM      30.03R
SPRINGFIELD    FAIR      71  60  68 CALM      30.03S
6HR MIN TEMP:  70; 6HR MAX TEMP:  87;

TAYLORVILLE    FAIR      70  58  65 SE6       30.03F
6HR MIN TEMP:  68; 6HR MAX TEMP:  84;

$$

ILZ033-039-045-046-055>057-062-063-250700-
EAST-CENTRAL ILLINOIS

CITY           SKY/WX    TMP DP  RH WIND       PRES   REMARKS
CHAMPAIGN      FAIR      68  56  65 SE8       30.05S
DANVILLE*      FAIR      66  54  66 CALM      30.03F
RANTOUL*       FAIR      69  55  60 CALM      30.05S
MATTOON        FAIR      70  57  63 SE7       30.04F
PARIS*         FAIR      65  56  74 CALM      30.07S
$$

ILZ079-100>102-250700-
SOUTHWEST ILLINOIS

CITY           SKY/WX    TMP DP  RH WIND       PRES   REMARKS
ALTON          CLEAR     65  61  87 CALM      30.03S
BELLEVILLE     CLEAR     68  62  82 CALM      30.02S
CAHOKIA*       CLEAR     69  62  78 CALM      30.02S
SPARTA*        CLEAR     69  67  93 SE3       30.04S
$$

ILZ064>066-069>071-074>076-080>082-084>086-088>090-092>094-250700-
SOUTH-CENTRAL ILLINOIS

CITY           SKY/WX    TMP DP  RH WIND       PRES   REMARKS
CARBONDALE     FAIR      66  63  90 CALM      30.03F
6HR MIN TEMP:  66; 6HR MAX TEMP:  83;

CAIRO*         FAIR      71  69  95 CALM      30.03F
EFFINGHAM*     FAIR      64  58  81 E5        30.06S
MARION         FAIR      68  60  75 CALM      30.04F
MT. VERNON     FAIR      59  58  96 CALM      30.04F
CENTRALIA*     CLEAR     67  64  87 CALM      30.03F
SALEM*         FAIR      73  57  56 SE5       30.05S
METROPOLIS*    FAIR      68  66  93 CALM      30.04F FOG
$$

ILZ067-068-072-073-078-083-087-091-250700-
SOUTHEAST ILLINOIS

CITY           SKY/WX    TMP DP  RH WIND       PRES   REMARKS
LAWRENCEVILLE  FAIR      68  57  68 CALM      30.06S
FLORA*         FAIR      66  59  77 CALM      30.05F
FAIRFIELD*     FAIR      65  58  79 CALM      30.04F
HARRISBURG*    FAIR      65  62  93 CALM      30.04F
ROBINSON*      FAIR      62  60  92 CALM      30.06F
CARMI*         FAIR      66  62  87 CALM      30.04F
$$

ABBREVIATIONS USED IN REMARKS
   TC - TEMPERATURE IN CELSIUS
  WCI - WIND CHILL INDEX
   HX - HEAT INDEX
  VSB - VISIBILITY
$$





USA.gov is the U.S. government's official web portal to all federal, state and local government web resources and services.